Weather in Colima

Mexico     19°14′36″N   103°43′42″W
temp.,
°C
wind,
m/s
gust,
m/s
humid.,
%
clouds,
%
prec.,
mm/h
press.,
hPa
HPBL,
m
11 may, tue
tue1101:00+22nne1183100 1.9 101228
04:00+22nne118489 0.0 101113
07:00+21nne1185100 0.0 101111
10:00+28sse105598 0.0 1012622
13:00+33s2237100 0.0 10111605
16:00+31ssw5444100 0.0 10091128
19:00+28ssw3353100 0.3 1009825
22:00+24ssw1175100 0.3 101353
12 may, wed
wed1201:00+22e0083100 0.3 101413
04:00+22ne1183100 0.0 101211
07:00+21nne1180100 0.0 101211
10:00+28sse115398 0.0 1013631
13:00+34s3233100 0.0 10121977
16:00+34ssw6435100 0.0 10091952
19:00+28s2351100 0.9 1010574
22:00+24ssw11673 0.8 101214
13 may, thu
thu1301:00+23nne1173100 0.9 101311
04:00+22nne117775 0.3 101211
07:00+22ne117969 1.8 101317
10:00+28se115215 0.0 1013490
13:00+34ssw32345 0.0 10111632
16:00+34ssw543683 0.2 10091668
19:00+28e345566 2.3 1012819
22:00+23n2377100 2.3 1012171
14 may, fri
fri1401:00+23n117226 2.3 101412
04:00+22nne11755 0.2 101311
07:00+22nne11749 0.2 101311
10:00+28se115074 0.0 1014568
13:00+34s223344 0.0 10111787
16:00+32sw554184 0.1 10091216
19:00+28s335712 1.4 1010616
22:00+23w118153 3.2 1013107
15 may, sat
sat1501:00+23ne118365 3.3 101437
04:00+22ne128688 0.7 101347
07:00+21nne118797 5.1 101327
10:00+27sse11582 0.2 1014522
13:00+32s214135 0.2 10131309
16:00+33ssw64405 0.0 10091846
19:00+27s335980 1.5 1010562
22:00+23sse01805 1.4 101368